[[{"header":{"parameterUnit":"m.s-1","parameterCategory":1,"la1":30.2991,"la2":30.254,"lo1":-89.0895,"lo2":-89.0444,"dy":0.0017,"dx":0.0017,"nx":28,"ny":28,"refTime":"2025-04-04T21:00:00:Z","depth":0,"parameterNumber":2,"parameterNumberName":"U-component_of_WINDS"},"data":[0,0,0,0,0,0,0,0,0,0,0,0,0,0,0,0,0,0,0,0,0,0,0,0,0,0,0,0,0,0,0,0,0,0,0,0,0,0,0,0,0,0,0,0,0,0,0,0,0,0,0,0,0,0,0,0,0,0,-1.4506,-1.4508,0,-1.4678,-1.468,-1.4682,-1.4769,-1.4769,-1.4769,-1.4769,-1.4947,-1.4952,-1.4956,0,0,0,0,0,0,0,0,0,0,0,0,0,-1.4254,-1.4258,-1.4506,-1.4508,-1.451,-1.4678,-1.468,-1.4683,-1.4769,-1.4769,-1.4769,-1.4769,-1.4945,-1.4951,-1.4957,0,0,0,0,0,0,0,0,0,0,0,0,0,-1.4388,-1.4259,-1.4506,-1.4573,-1.4581,-1.4678,-1.4681,-1.4683,-1.4769,-1.4769,-1.4769,-1.4769,-1.4944,-1.495,-1.4957,-1.5,0,0,-1.4979,-1.4982,0,0,0,0,0,0,0,0,-1.438,-1.4397,-1.4561,-1.4569,-1.4578,-1.4702,-1.4657,-1.479,-1.4769,-1.4697,-1.4769,-1.4769,-1.4866,-1.4879,-1.4911,-1.5009,-1.5016,-1.498,-1.4984,-1.4987,-1.4989,0,0,0,0,0,0,0,-1.4371,-1.439,-1.4574,-1.4563,-1.4574,-1.4596,-1.4615,-1.4682,-1.4779,-1.4704,-1.471,-1.473,-1.487,-1.4904,-1.4916,-1.5019,-1.4979,-1.4986,-1.499,-1.4993,-1.5161,-1.5161,0,0,0,0,0,0,-1.435,-1.4382,-1.4569,-1.4579,-1.4477,-1.46,-1.4622,-1.4662,-1.4779,-1.4797,-1.4729,-1.4733,-1.4892,-1.4908,-1.4923,-1.4982,-1.4987,-1.4994,-1.4998,-1.5161,-1.5161,-1.5161,0,0,0,0,0,0,-1.4345,-1.4366,-1.4562,-1.4483,-1.4509,-1.4605,-1.4649,-1.4665,-1.47,-1.4798,-1.4816,-1.4746,-1.4893,-1.4913,-1.4981,-1.4989,-1.4997,-1.5003,-1.5161,-1.5161,-1.5161,-1.5098,0,0,0,0,0,0,-1.4337,-1.4364,-1.438,-1.4482,-1.4513,-1.4616,-1.465,-1.4669,-1.4712,-1.4718,-1.4819,-1.4836,-1.4894,-1.4969,-1.4987,-1.4999,-1.5009,-1.516,-1.5161,-1.5161,-1.51,-1.5096,-1.5093,0,0,0,0,0,-1.4328,-1.4356,-1.4381,-1.4403,-1.4536,-1.4616,-1.4634,-1.47,-1.4712,-1.473,-1.4793,-1.4832,-1.4985,-1.4976,-1.4997,-1.501,-1.516,-1.5161,-1.5161,-1.5102,-1.5097,-1.5093,0,0,0,0,0,0,-1.4253,-1.437,-1.4399,-1.4461,-1.4528,-1.463,-1.4655,-1.4693,-1.4759,-1.4762,-1.4843,-1.4865,-1.4925,-1.4975,-1.4962,-1.5058,-1.5076,-1.5081,-1.5024,-1.502,-1.5017,-1.5004,-1.5015,0,0,0,0,0,-1.4243,-1.4298,-1.4398,-1.4443,-1.4475,-1.4559,-1.4596,-1.4642,-1.4715,-1.4744,-1.4812,-1.4881,-1.4945,-1.4986,-1.505,-1.5107,-1.5131,-1.5127,-1.5124,-1.512,-1.5124,-1.5159,-1.5159,-1.5163,-1.5163,-1.5163,0,0,-1.4225,-1.4296,-1.4325,-1.443,-1.4487,-1.4542,-1.4582,-1.4639,-1.4682,-1.4753,-1.4821,-1.4873,-1.4956,-1.5019,-1.505,-1.5062,-1.5128,-1.5121,-1.5118,-1.5123,-1.516,-1.5159,-1.5159,-1.5163,-1.5163,-1.5163,0,0,-1.4219,-1.4278,-1.4322,-1.4378,-1.4464,-1.452,-1.453,-1.4628,-1.4665,-1.4734,-1.4789,-1.4841,-1.4949,-1.5006,-1.5049,-1.5066,-1.5105,-1.5084,-1.5067,-1.51,-1.51,-1.51,-1.5107,-1.5108,-1.5087,-1.5087,-1.5087,0,-1.4185,-1.427,-1.434,-1.4394,-1.4439,-1.4505,-1.4551,-1.4603,-1.4705,-1.4735,-1.4746,-1.4884,-1.4944,-1.5022,-1.5026,-1.5059,-1.5074,-1.5073,-1.5094,-1.5095,-1.5096,-1.5104,-1.5106,-1.5084,-1.5084,-1.5085,-1.5085,0,-1.4225,-1.4283,-1.4309,-1.4405,-1.4453,-1.4503,-1.4581,-1.4621,-1.4662,-1.4717,-1.4788,-1.4863,-1.4943,-1.4965,-1.5006,-1.5049,-1.5054,-1.5079,-1.5099,-1.5092,-1.51,-1.5104,-1.508,-1.5081,-1.5082,-1.5082,0,0,-1.4177,-1.4312,-1.432,-1.4365,-1.4465,-1.4512,-1.4565,-1.4643,-1.4677,-1.4745,-1.4792,-1.4882,-1.4906,-1.4955,-1.5003,-1.5032,-1.5042,-1.5054,-1.5057,-1.505,-1.5095,-1.5077,-1.5079,-1.5068,-1.5069,-1.507,-1.5089,0,-1.4186,-1.4284,-1.4348,-1.4421,-1.4476,-1.454,-1.4586,-1.4653,-1.4705,-1.4761,-1.482,-1.4882,-1.4908,-1.4938,-1.497,-1.5034,-1.5052,-1.5033,-1.5114,-1.5116,-1.5092,-1.5083,-1.5063,-1.5078,-1.5092,-1.5093,-1.5093,0,-1.421,-1.4276,-1.4353,-1.4448,-1.4474,-1.4514,-1.4592,-1.4643,-1.4721,-1.4757,-1.4811,-1.4861,-1.4921,-1.4935,-1.5019,-1.5004,-1.5041,-1.5078,-1.508,-1.5091,-1.5105,-1.5094,-1.5084,-1.5086,-1.5099,-1.5099,-1.5098,0,-1.4168,-1.4277,-1.4338,-1.4374,-1.4485,-1.4512,-1.456,-1.4637,-1.4681,-1.4749,-1.4778,-1.4852,-1.4893,-1.4949,-1.5018,-1.5022,-1.5095,-1.5115,-1.5128,-1.5127,-1.5142,-1.514,-1.5138,-1.5163,-1.5163,-1.5163,-1.5163,0,-1.4172,-1.4217,-1.432,-1.4358,-1.4411,-1.4485,-1.4535,-1.4589,-1.4657,-1.4707,-1.4766,-1.4812,-1.4899,-1.4955,-1.5009,-1.5071,-1.5089,-1.5121,-1.5135,-1.5116,-1.5112,-1.5142,-1.5143,-1.5164,-1.5164,-1.5164,-1.5164,0,-1.4135,-1.4205,-1.4276,-1.4375,-1.4401,-1.4436,-1.4522,-1.4561,-1.4617,-1.4679,-1.4698,-1.4786,-1.4856,-1.4929,-1.5024,-1.506,-1.512,-1.5139,-1.5094,-1.5102,-1.5112,-1.511,-1.5129,-1.5136,-1.5156,-1.5155,-1.5155,0,-1.4133,-1.4169,-1.4272,-1.4309,-1.4355,-1.4414,-1.4459,-1.4533,-1.4578,-1.4669,-1.4697,-1.4771,-1.4834,-1.4943,-1.5016,-1.5089,-1.5111,-1.5113,-1.5122,-1.5102,-1.5112,-1.5109,-1.5114,-1.5109,-1.5109,-1.5108,-1.5108,0,-1.4122,-1.4155,-1.4217,-1.429,-1.4342,-1.4404,-1.4468,-1.4495,-1.4583,-1.4629,-1.4701,-1.475,-1.4847,-1.492,-1.5002,-1.5052,-1.5095,-1.5104,-1.5111,-1.5093,-1.5065,-1.5082,-1.5086,-1.5104,-1.5104,-1.5104,-1.5104,-1.5105,-1.4103,-1.4139,-1.4217,-1.4284,-1.434,-1.4398,-1.444,-1.4501,-1.4562,-1.4646,-1.4687,-1.4759,-1.4836,-1.4951,-1.5,-1.5058,-1.5071,-1.5081,-1.5084,-1.5085,-1.5081,-1.5055,-1.5073,-1.5074,-1.5074,-1.5074,-1.5074,0,-1.4097,-1.415,-1.421,-1.4298,-1.4351,-1.4386,-1.4459,-1.4501,-1.4563,-1.4631,-1.4692,-1.4775,-1.4847,-1.4925,-1.5002,-1.5033,-1.5055,-1.5051,-1.505,-1.5061,-1.5065,-1.5051,-1.5032,-1.5032,-1.5032,-1.5032,-1.5032,-1.5032,-1.4099,-1.4161,-1.4204,-1.4295,-1.4349,-1.4419,-1.4458,-1.4513,-1.4568,-1.4657,-1.4717,-1.4767,-1.484,-1.4923,-1.499,-1.5012,-1.5037,-1.5028,-1.5055,-1.5057,-1.506,-1.5064,-1.5051,-1.5032,-1.5032,-1.5047,-1.5047,-1.5047]},{"header":{"parameterUnit":"m.s-1","parameterCategory":1,"la1":30.2991,"la2":30.254,"lo1":-89.0895,"lo2":-89.0444,"dy":0.0017,"dx":0.0017,"nx":28,"ny":28,"refTime":"2025-04-04T21:00:00:Z","depth":0,"parameterNumber":3,"parameterNumberName":"V-component_of_WINDS"},"data":[0,0,0,0,0,0,0,0,0,0,0,0,0,0,0,0,0,0,0,0,0,0,0,0,0,0,0,0,0,0,0,0,0,0,0,0,0,0,0,0,0,0,0,0,0,0,0,0,0,0,0,0,0,0,0,0,0,0,6.6525,6.6527,0,6.667,6.6672,6.6673,6.6666,6.6664,6.6662,6.666,6.6808,6.6813,6.6819,0,0,0,0,0,0,0,0,0,0,0,0,0,6.6243,6.6248,6.6525,6.6527,6.6529,6.667,6.6672,6.6674,6.6667,6.6664,6.6662,6.6659,6.6806,6.6813,6.682,0,0,0,0,0,0,0,0,0,0,0,0,0,6.6374,6.625,6.6525,6.6542,6.6545,6.6669,6.6672,6.6674,6.6667,6.6664,6.6661,6.6658,6.6803,6.6812,6.6821,6.6936,0,0,6.6847,6.6851,0,0,0,0,0,0,0,0,6.6367,6.6385,6.6538,6.6541,6.6545,6.6647,6.6626,6.6762,6.6668,6.6621,6.666,6.6657,6.6757,6.6769,6.6803,6.6943,6.695,6.6848,6.6853,6.6857,6.686,0,0,0,0,0,0,0,6.6358,6.6378,6.6582,6.654,6.6544,6.6543,6.6558,6.6652,6.6704,6.6625,6.6625,6.6642,6.6758,6.6795,6.6806,6.6952,6.6848,6.6856,6.6861,6.6864,6.7198,6.7201,0,0,0,0,0,0,6.6345,6.6371,6.6578,6.6587,6.6447,6.6551,6.6568,6.6617,6.6703,6.6713,6.6644,6.6641,6.6781,6.6796,6.6811,6.6955,6.6857,6.6865,6.687,6.7194,6.7199,6.7203,0,0,0,0,0,0,6.6339,6.6363,6.6572,6.6479,6.6505,6.6559,6.6615,6.6622,6.6658,6.6718,6.6727,6.6672,6.6779,6.6799,6.6906,6.696,6.6869,6.6877,6.719,6.7196,6.7201,6.7242,0,0,0,0,0,0,6.6331,6.6361,6.6405,6.648,6.651,6.6664,6.6618,6.6627,6.6674,6.6671,6.6747,6.6756,6.6778,6.6893,6.6915,6.6971,6.6884,6.7186,6.7193,6.7199,6.7236,6.7248,6.7259,0,0,0,0,0,6.6321,6.641,6.6408,6.6433,6.6567,6.6667,6.6684,6.6708,6.6678,6.6723,6.6762,6.6754,6.6951,6.6904,6.6929,6.6988,6.7182,6.7191,6.7199,6.7231,6.7246,6.7258,0,0,0,0,0,0,6.6339,6.642,6.6418,6.6534,6.6594,6.6666,6.6723,6.6723,6.6792,6.6786,6.6812,6.683,6.6938,6.6973,6.692,6.7106,6.7063,6.7076,6.7079,6.7094,6.7105,6.7094,6.6891,0,0,0,0,0,6.6357,6.6432,6.6499,6.6595,6.6625,6.6669,6.6714,6.6727,6.679,6.6815,6.6861,6.6923,6.6999,6.7048,6.712,6.7241,6.7259,6.7294,6.7305,6.7314,6.7326,6.7395,6.7412,6.7229,6.7229,6.7229,0,0,6.6394,6.6448,6.6493,6.66,6.6648,6.6726,6.669,6.6773,6.6832,6.6827,6.6932,6.6969,6.7039,6.7154,6.7207,6.7187,6.738,6.7324,6.7331,6.7338,6.7405,6.7423,6.7438,6.7235,6.7234,6.7233,0,0,6.6503,6.655,6.6637,6.6686,6.6759,6.6789,6.681,6.6882,6.6907,6.7013,6.7012,6.7082,6.7211,6.7262,6.7305,6.7436,6.7431,6.7458,6.7517,6.7585,6.7599,6.7612,6.7661,6.7678,6.747,6.747,6.747,0,6.654,6.6657,6.6681,6.6766,6.6814,6.6815,6.6904,6.695,6.7044,6.7077,6.7053,6.7218,6.7265,6.7394,6.7426,6.746,6.7486,6.745,6.7595,6.7608,6.7621,6.7668,6.7686,6.7473,6.7472,6.7472,6.7472,0,6.67,6.6781,6.6843,6.6935,6.6989,6.7075,6.7114,6.7166,6.7176,6.7208,6.7317,6.7374,6.746,6.7491,6.75,6.7622,6.7608,6.7589,6.7546,6.7641,6.7686,6.7704,6.7477,6.7476,6.7475,6.7474,0,0,6.6823,6.6929,6.6951,6.6995,6.7077,6.7141,6.7228,6.7313,6.7359,6.7423,6.7498,6.7609,6.7594,6.7642,6.7657,6.7716,6.782,6.7691,6.7693,6.7715,6.7961,6.7976,6.7996,6.7817,6.7821,6.7824,6.7956,0,6.6941,6.7097,6.7122,6.7259,6.7336,6.7339,6.7416,6.7475,6.7508,6.7578,6.7614,6.7694,6.7666,6.7696,6.7754,6.7795,6.787,6.7785,6.7889,6.7892,6.7873,6.8019,6.8034,6.8156,6.7973,6.7976,6.7978,0,6.7099,6.7171,6.7315,6.739,6.7424,6.7492,6.7574,6.764,6.7708,6.7728,6.7784,6.7793,6.7885,6.7838,6.7966,6.7908,6.7952,6.7979,6.7984,6.7996,6.7942,6.8037,6.8195,6.8214,6.8006,6.8003,6.8002,0,6.7178,6.7309,6.7414,6.745,6.7539,6.7588,6.7627,6.7692,6.7743,6.7814,6.7848,6.7928,6.7973,6.8036,6.8067,6.8029,6.8194,6.8148,6.8214,6.8214,6.825,6.8247,6.842,6.8275,6.8275,6.8274,6.8274,0,6.7308,6.7397,6.7451,6.7515,6.7616,6.7645,6.7744,6.7782,6.784,6.7913,6.792,6.7988,6.8024,6.8098,6.8123,6.8227,6.8246,6.8266,6.8272,6.8267,6.8265,6.8297,6.829,6.8279,6.8278,6.8277,6.8276,0,6.7413,6.7452,6.7567,6.7643,6.7664,6.7735,6.78,6.7864,6.7897,6.7989,6.8012,6.8065,6.8152,6.819,6.8296,6.8313,6.8434,6.8432,6.8411,6.8413,6.8478,6.8473,6.8679,6.8709,6.8542,6.8544,6.8545,0,6.7494,6.7563,6.7648,6.7697,6.7739,6.7818,6.7871,6.7902,6.7957,6.8041,6.8095,6.8183,6.8255,6.8395,6.8443,6.8526,6.8528,6.8594,6.854,6.8534,6.8532,6.8528,6.8536,6.8604,6.8606,6.8607,6.8609,0,6.7635,6.7652,6.7727,6.7811,6.7874,6.794,6.8005,6.8046,6.8088,6.8149,6.8239,6.8296,6.8406,6.8494,6.8581,6.8622,6.8624,6.8625,6.8646,6.8642,6.8628,6.8639,6.844,6.8621,6.8619,6.8619,6.8618,6.8617,6.7733,6.7795,6.7866,6.795,6.8003,6.8065,6.8129,6.8171,6.8247,6.8341,6.8355,6.8452,6.8521,6.8637,6.8682,6.8759,6.8742,6.8771,6.8778,6.8786,6.8791,6.8614,6.8774,6.8774,6.8774,6.8774,6.8773,0,6.7876,6.7922,6.8,6.8092,6.8159,6.8155,6.8228,6.8285,6.837,6.8435,6.8507,6.8612,6.8698,6.8754,6.8841,6.8892,6.8895,6.8914,6.8912,6.8922,6.88,6.8775,6.8911,6.8911,6.8911,6.891,6.891,6.891,6.7959,6.8066,6.8092,6.8226,6.8271,6.8367,6.8409,6.8467,6.8519,6.8636,6.8709,6.8744,6.8806,6.8899,6.8978,6.8992,6.9025,6.9046,6.9059,6.8944,6.893,6.8916,6.8893,6.9052,6.9052,6.9175,6.9176,6.9177]}]]